Regional Weather Roundup
Issued by NWS

Home | Current Version | Previous Version | Graphics & Text | Print | Product List | Glossary On
Versions: 1 2 3 4 5 6 7 8 9 10 11 12 13 14 15 16 17 18 19 20 21 22 23 24 25 26 27 28 29 30 31 32 33 34 35 36 37 38 39 40 41 42 43 44 45 46 47 48 49 50
565
ASUS44 KLIX 200605
RWRLA
LOUISIANA WEATHER ROUNDUP
NATIONAL WEATHER SERVICE NEW ORLEANS LA
100 AM CDT WED AUG 20 2014

NOTE: "FAIR" INDICATES FEW OR NO CLOUDS BELOW 12,000 FEET WITH NO
      SIGNIFICANT WEATHER AND/OR OBSTRUCTIONS TO VISIBILITY.
      SKY/WX - SKY CONDITION AND SIGNIFICANT WEATHER.
      TMP - AIR TEMPERATURE.    DP   - DEWPOINT TEMPERATURE.
      RH  - RELATIVE HUMIDITY.  PRES - PRESSURE.
      HX  - HEAT INDEX.         WCI  - WIND CHILL INDEX.

*  THESE STATIONS ARE NOT NWS OR FAA STATIONS AND ARE NOT UNDER
   NWS QUALITY CONTROL.

LAZ040-048-061>063-065-066-069-200700-
SOUTHEAST LOUISIANA

CITY           SKY/WX    TMP DP  RH WIND       PRES   REMARKS
N.O. AUDUBON   NOT AVBL
N.O. INTL ARPT FAIR      79  74  84 S6        29.98F
6HR MIN TEMP:  79; 6HR MAX TEMP:  84;

N.O. LAKEFRONT FAIR      82  75  79 S6        29.98F
6HR MIN TEMP:  81; 6HR MAX TEMP:  86;

N.O. DOWNTOWN* FAIR      84  72  65 S5        29.98F
6HR MIN TEMP:  84; 6HR MAX TEMP:  90;

SLIDELL        FAIR      77  73  87 CALM      29.97F
6HR MIN TEMP:  76; 6HR MAX TEMP:  84;

BATON ROUGE    FAIR      74  71  91 CALM      29.98S
6HR MIN TEMP:  74; 6HR MAX TEMP:  81;

BOOTHVILLE     FAIR      84  76  76 S7        30.00F
6HR MIN TEMP:  83; 6HR MAX TEMP:  86;

BELLE CHASSE   FAIR      77  73  87 SW5       29.98F
6HR MIN TEMP:  77; 6HR MAX TEMP:  82;

BOGALUSA*        N/A     77  73  85 CALM      29.99F
6HR MIN TEMP:  77; 6HR MAX TEMP:  83;

GALLIANO*      NOT AVBL
NEW ROADS*     FAIR      73  72  98 CALM      29.98S
6HR MIN TEMP:  73; 6HR MAX TEMP:  77;

GONZALES*      FAIR      74  74 100 CALM      29.98S
6HR MIN TEMP:  74; 6HR MAX TEMP:  82;

HAMMOND*       FAIR      75  72  88 CALM      29.99F
HOUMA*         FAIR      76  72  89 CALM      29.99S FOG
6HR MIN TEMP:  76; 6HR MAX TEMP:  85;

PORT FOURCHON* CLEAR     84  75  74 S5        30.01F

$$

LAZ041-044-053-054-200700-
SOUTHWEST LOUISIANA

CITY           SKY/WX    TMP DP  RH WIND       PRES   REMARKS
LAKE CHARLES   FAIR      75  73  93 SE5       29.97R
6HR MIN TEMP:  74; 6HR MAX TEMP:  79;

LAFAYETTE      FAIR      74  73  97 S3        29.99S
6HR MIN TEMP:  74; 6HR MAX TEMP:  77;

PATTERSON      FAIR     N/A N/A N/A MISG        N/A
SALT POINT       N/A     81  77  88 CALM      29.98S
6HR MIN TEMP:  81; 6HR MAX TEMP:  86; 6HR PCP:  0.17;

NEW IBERIA     FAIR      75  73  93 SE3       29.99S
6HR MIN TEMP:  74; 6HR MAX TEMP:  81;

CHENAULT AIRPK FAIR      73  73 100 SE3       29.98S
6HR MIN TEMP:  73; 6HR MAX TEMP:  77;


$$

LAZ027-028-200700-
CENTRAL LOUISIANA

CITY           SKY/WX    TMP DP  RH WIND       PRES   REMARKS
FORT POLK      FAIR      73  72  96 CALM      29.97S
6HR MIN TEMP:  73; 6HR MAX TEMP:  78; 6HR PCP: TRACE;

ALEXANDRIA INT FAIR      74  72  93 S3        29.96R
6HR MIN TEMP:  74; 6HR MAX TEMP:  81; 6HR PCP: TRACE;

ALEXANDRIA     FAIR      74  72  93 W3        29.97R
6HR MIN TEMP:  74; 6HR MAX TEMP:  79;


$$

LAZ001-002-200700-
NORTHWEST LOUISIANA

CITY           SKY/WX    TMP DP  RH WIND       PRES   REMARKS
SHREVEPORT     MOCLDY    76  68  76 CALM      29.93S
6HR MIN TEMP:  75; 6HR MAX TEMP:  79;

BARKSDALE AFB  FAIR      72  68  87 E2        29.94R
6HR MIN TEMP:  72; 6HR MAX TEMP:  83;

DTN SHREVEPORT FAIR      77  66  68 CALM      29.94R
6HR MIN TEMP:  75; 6HR MAX TEMP:  82;


$$

LAZ014-016-200700-
NORTHEAST LOUISIANA

CITY           SKY/WX    TMP DP  RH WIND       PRES   REMARKS
MONROE         FAIR      75  70  84 S3        29.96R
6HR MIN TEMP:  75; 6HR MAX TEMP:  89;

TALLULAH       FAIR      75  72  90 CALM      29.96S
6HR MIN TEMP:  75; 6HR MAX TEMP:  87;


$$




USA.gov is the U.S. government's official web portal to all federal, state and local government web resources and services.